Butler, GA

9:30 PM EST on December 15, 2019 (GMT -0500)
Butler

Weather History for K6A1 - October, 2019

Change the Weather History Date:

Saturday, October 12, 2019

  Actual Average (KMCN) Record (KMCN)
Temperature  
Mean Temperature 72 °F -  
Max Temperature 87 °F 79 °F 93 °F (2017)
Min Temperature 57 °F 52 °F 37 °F (2000)
Cooling Degree Days 7    
Growing Degree Days 22 (Base 50)    
Moisture  
Dew Point 55 °F    
Average Humidity 56    
Maximum Humidity 88    
Minimum Humidity 29    
Precipitation  
Precipitation 0.00 in - - ()
Sea Level Pressure  
Sea Level Pressure 30.05 in    
Wind  
Wind Speed 4 mph ()    
Max Wind Speed 9 mph    
Max Gust Speed -    
Visibility 10.0 miles    
Events      
Averages and records for this station are not official NWS values.
T = Trace of Precipitation, MM = Missing Value Source: Averaged Metar Reports

Daily Weather History Graph

Daily Weather History Graph

Search for Another Location

Airport or City:

Astronomy

Oct. 12, 2019 Rise Set
Actual Time 7:38 AM EDT 7:07 PM EDT
Civil Twilight 7:13 AM EDT 7:32 PM EDT
Nautical Twilight 6:45 AM EDT 8:01 PM EDT
Astronomical Twilight 6:16 AM EDT 8:29 PM EDT
Moon 6:56 PM EDT (10/12) 6:23 AM EDT (10/12)
Length of Visible Light 12h 18m
Length of Day
11h 29m
Waxing Gibbous, 99% of the Moon is Illuminated
Oct 12
Waxing Gibbous
Oct 13
Full
Oct 21
Last Quarter
Oct 27
New
Nov 4
First Quarter

Hourly Weather History & Observations

Time (EDT) Temp. Heat Index Dew Point Humidity Pressure Visibility Wind Dir Wind Speed Gust Speed Precip Events Conditions
12:15 AM 68.9 °F - 47.3 °F 46% 30.07 in 10.0 mi South 3.5 mph - N/A   Unknown
12:35 AM 69.1 °F - 47.3 °F 46% 30.06 in 10.0 mi South 4.6 mph - N/A   Unknown
12:55 AM 64.8 °F - 47.7 °F 54% 30.06 in 10.0 mi South 3.5 mph - N/A   Unknown
1:15 AM 67.1 °F - 47.3 °F 49% 30.06 in 10.0 mi South 3.5 mph - N/A   Unknown
1:35 AM 66.4 °F - 47.3 °F 50% 30.06 in 10.0 mi South 3.5 mph - N/A   Unknown
1:55 AM 67.1 °F - 47.1 °F 49% 30.06 in 10.0 mi SSW 4.6 mph - N/A   Unknown
2:15 AM 67.1 °F - 47.1 °F 49% 30.06 in 10.0 mi South 3.5 mph - N/A   Unknown
2:35 AM 65.5 °F - 48.0 °F 53% 30.05 in 10.0 mi SSE 6.9 mph - N/A   Unknown
2:55 AM 65.3 °F - 48.2 °F 54% 30.06 in 10.0 mi South 4.6 mph - N/A   Unknown
3:15 AM 64.6 °F - 50.4 °F 60% 30.05 in 10.0 mi South 6.9 mph - N/A   Unknown
3:35 AM 64.4 °F - 52.9 °F 66% 30.04 in 10.0 mi South 8.1 mph - N/A   Unknown
3:55 AM 64.8 °F - 54.1 °F 68% 30.04 in 10.0 mi SSW 5.8 mph - N/A   Unknown
4:15 AM 63.3 °F - 53.6 °F 71% 30.05 in 10.0 mi SSW 4.6 mph - N/A   Unknown
4:35 AM 63.0 °F - 54.0 °F 72% 30.05 in 10.0 mi SSW 4.6 mph - N/A   Unknown
4:55 AM 62.8 °F - 54.5 °F 74% 30.04 in 10.0 mi SSW 5.8 mph - N/A   Unknown
5:15 AM 62.6 °F - 54.5 °F 75% 30.05 in 10.0 mi SW 5.8 mph - N/A   Unknown
5:35 AM 62.1 °F - 54.5 °F 76% 30.05 in 10.0 mi SSW 4.6 mph - N/A   Unknown
5:55 AM 61.9 °F - 54.5 °F 77% 30.05 in 10.0 mi SSW 4.6 mph - N/A   Unknown
6:15 AM 61.7 °F - 54.7 °F 78% 30.05 in 10.0 mi SSW 3.5 mph - N/A   Unknown
6:35 AM 60.4 °F - 54.5 °F 81% 30.06 in 10.0 mi Calm Calm - N/A   Unknown
6:55 AM 58.8 °F - 53.6 °F 83% 30.05 in 10.0 mi Calm Calm - N/A   Unknown
7:15 AM 59.7 °F - 54.7 °F 83% 30.06 in 10.0 mi Calm Calm - N/A   Unknown
7:35 AM 59.5 °F - 55.2 °F 86% 30.07 in 10.0 mi Calm Calm - N/A   Unknown
7:55 AM 57.7 °F - 54.3 °F 88% 30.07 in 10.0 mi Calm Calm - N/A   Unknown
8:15 AM 59.5 °F - 55.4 °F 86% 30.08 in 10.0 mi Calm Calm - N/A   Unknown
8:35 AM 59.9 °F - 55.4 °F 85% 30.08 in 10.0 mi Calm Calm - N/A   Unknown
8:55 AM 65.1 °F - 56.7 °F 74% 30.08 in 10.0 mi SW 5.8 mph - N/A   Unknown
9:15 AM 68.7 °F - 59.0 °F 71% 30.08 in 10.0 mi SSW 6.9 mph - N/A   Unknown
9:35 AM 68.9 °F - 59.4 °F 72% 30.08 in 10.0 mi SW 8.1 mph - N/A   Unknown
9:55 AM 69.1 °F - 59.2 °F 71% 30.08 in 10.0 mi SW 9.2 mph - N/A   Unknown
10:15 AM 69.8 °F - 59.0 °F 68% 30.08 in 10.0 mi SW 8.1 mph - N/A   Unknown
10:35 AM 73.6 °F - 58.8 °F 60% 30.08 in 10.0 mi WSW 5.8 mph - N/A   Unknown
10:55 AM 75.2 °F - 58.1 °F 55% 30.08 in 10.0 mi WSW 3.5 mph - N/A   Unknown
11:15 AM 77.0 °F - 56.5 °F 49% 30.08 in 10.0 mi WSW 6.9 mph - N/A   Unknown
11:35 AM 78.6 °F - 54.1 °F 43% 30.09 in 10.0 mi WSW 4.6 mph - N/A   Unknown
11:55 AM 80.8 °F - 52.0 °F 37% 30.08 in 10.0 mi West 4.6 mph - N/A   Unknown
12:15 PM 82.2 °F - 51.1 °F 34% 30.08 in 10.0 mi West 5.8 mph - N/A   Unknown
12:35 PM 82.9 °F - 51.6 °F 34% 30.07 in 10.0 mi Calm Calm - N/A   Unknown
12:55 PM 82.8 °F - 50.9 °F 33% 30.07 in 10.0 mi West 4.6 mph - N/A   Unknown
1:15 PM 83.7 °F - 50.5 °F 32% 30.06 in 10.0 mi WSW 6.9 mph - N/A   Unknown
1:55 PM 85.5 °F - 50.9 °F 30% 30.05 in 10.0 mi ENE 4.6 mph - N/A   Unknown
2:15 PM 85.3 °F - 51.1 °F 31% 30.04 in 10.0 mi Calm Calm - N/A   Unknown
2:35 PM 84.9 °F - 51.1 °F 31% 30.03 in 10.0 mi North 4.6 mph - N/A   Unknown
2:55 PM 86.2 °F - 52.0 °F 31% 30.02 in 10.0 mi WNW 4.6 mph - N/A   Unknown
3:15 PM 86.5 °F - 51.1 °F 29% 30.02 in 10.0 mi WNW 6.9 mph - N/A   Unknown
3:35 PM 86.9 °F - 51.3 °F 29% 30.01 in 10.0 mi NW 8.1 mph - N/A   Unknown
3:55 PM 87.3 °F - 52.0 °F 30% 30.00 in 10.0 mi West 8.1 mph - N/A   Unknown
4:15 PM 87.3 °F - 52.7 °F 30% 30.00 in 10.0 mi NW 5.8 mph - N/A   Unknown
4:55 PM 85.3 °F 83.6 °F 53.8 °F 34% 30.00 in 10.0 mi WNW 3.5 mph - N/A   Unknown
5:15 PM 84.9 °F 83.4 °F 54.5 °F 35% 30.00 in 10.0 mi NW 4.6 mph - N/A   Unknown
5:35 PM 84.4 °F 83.2 °F 55.4 °F 37% 30.00 in 10.0 mi NNW 4.6 mph - N/A   Unknown
5:55 PM 83.5 °F 82.6 °F 55.9 °F 39% 30.01 in 10.0 mi NW 4.6 mph - N/A   Unknown
6:15 PM 83.3 °F 82.6 °F 56.5 °F 40% 30.01 in 10.0 mi NW 4.6 mph - N/A   Unknown
6:35 PM 82.6 °F 82.3 °F 58.3 °F 43% 30.01 in 10.0 mi NNW 4.6 mph - N/A   Unknown
6:55 PM 81.5 °F 81.8 °F 59.2 °F 47% 30.01 in 10.0 mi NNW 4.6 mph - N/A   Unknown
7:15 PM 80.8 °F 81.3 °F 59.4 °F 48% 30.01 in 10.0 mi North 3.5 mph - N/A   Unknown
7:35 PM 79.3 °F - 59.4 °F 50% 30.01 in 10.0 mi North 4.6 mph - N/A   Unknown
7:55 PM 77.7 °F - 59.5 °F 53% 30.02 in 10.0 mi North 5.8 mph - N/A   Unknown
8:15 PM 76.5 °F - 59.9 °F 56% 30.02 in 10.0 mi North 3.5 mph - N/A   Unknown
8:35 PM 75.4 °F - 60.1 °F 59% 30.03 in 10.0 mi North 5.8 mph - N/A   Unknown
8:55 PM 75.2 °F - 60.1 °F 59% 30.03 in 10.0 mi North 4.6 mph - N/A   Unknown
9:15 PM 75.2 °F - 60.1 °F 59% 30.04 in 10.0 mi North 3.5 mph - N/A   Unknown
9:35 PM 74.8 °F - 60.1 °F 60% 30.04 in 10.0 mi NNE 3.5 mph - N/A   Unknown
9:55 PM 74.3 °F - 60.3 °F 61% 30.04 in 10.0 mi North 3.5 mph - N/A   Unknown
10:15 PM 74.1 °F - 60.3 °F 62% 30.04 in 10.0 mi Calm Calm - N/A   Unknown
10:35 PM 71.8 °F - 59.7 °F 66% 30.04 in 10.0 mi Calm Calm - N/A   Unknown
10:55 PM 72.9 °F - 60.6 °F 65% 30.04 in 10.0 mi NNW 3.5 mph - N/A   Unknown
11:15 PM 72.7 °F - 60.4 °F 65% 30.04 in 10.0 mi Calm Calm - N/A   Unknown
11:35 PM 72.5 °F - 60.8 °F 67% 30.03 in 10.0 mi Calm Calm - N/A   Unknown
11:55 PM 72.0 °F - 60.8 °F 68% 30.03 in 10.0 mi Calm Calm - N/A   Unknown